16 Aug
2007
16 Aug
'07
11:32 p.m.
ISS (ZARYA) 1 25544U 98067A 07228.36625197 .00000148 00000-0 50721-5 0 7933 2 25544 51.6340 153.1805 0007770 250.6259 207.0537 15.76087264500278
6338
Age (days ago)
6338
Last active (days ago)
0 comments
1 participants
participants (1)
-
Arthur Rowe